AirNav   Air Wisconsin pilot careers
 
 892 users online  

67R Rio Grande City Municipal Airport
Rio Grande City, Texas, USA

GOING TO RIO GRANDE CITY?


FAA INFORMATION EFFECTIVE 29 MARCH 2018

Location

FAA Identifier: 67R
Lat/Long: 26-25-27.4200N / 098-50-45.8900W
26-25.457000N / 098-50.764833W
26.4242833 / -98.8460806
(estimated)
Elevation: 290.3 ft. / 88.5 m (surveyed)
Variation: 07E (1990)
From city: 3 miles NW of RIO GRANDE CITY, TX
Time zone: UTC -5 (UTC -6 during Standard Time)
Zip code: 78582

Airport Operations

Airport use: Open to the public
Activation date: 03/1971
Control tower: no
ARTCC: HOUSTON CENTER
FSS: SAN ANGELO FLIGHT SERVICE STATION
NOTAMs facility: SJT (NOTAM-D service available)
Attendance: UNATNDD
Wind indicator: lighted
Segmented circle: yes
Lights: MIRL RY 16/34 PRESET LOW INTST; TO INCR INTST ACTVT - CTAF.
Beacon: white-green (lighted land airport)
Operates sunset to sunrise.

Airport Communications

CTAF: 122.9

Nearby radio navigation aids

VOR radial/distance  VOR name  Freq  Var
MFEr286/35.9MC ALLEN VOR/DME117.2009E

 
NDB name  Hdg/Dist  Freq  Var  ID
SANTA ELENA214/23.326007ESNE ... -. .

Airport Services

Parking: tiedowns

Runway Information

Runway 16/34

Dimensions: 4000 x 75 ft. / 1219 x 23 m
Surface: asphalt, in good condition
Weight bearing capacity: 
Single wheel: 12.5
Runway edge lights: medium intensity
RUNWAY 16  RUNWAY 34
Latitude: 26-25.707367N26-25.081167N
Longitude: 098-50.858500W098-50.626000W
Elevation: 290.3 ft.273.1 ft.
Gradient: 0.5%0.5%
Traffic pattern: leftleft
Runway heading: 155 magnetic, 162 true335 magnetic, 342 true
Markings: nonprecision, in good conditionnonprecision, in good condition
Touchdown point: yes, no lightsyes, no lights
Obstructions: none10 ft. brush, 200 ft. from runway, 57 ft. left of centerline
SCATTERED +10 FT BRUSH 50-200 FT FM THLD ACROSS APPROACH.

Airport Ownership and Management from official FAA records

Ownership: Publicly-owned
Owner: CITY OF RIO GRANDE CITY
5332 E. US-83
RIO GRANDE CITY, TX 78582
Phone 956-487-0672
Manager: RICARDO REYES
5332 E. US-83
RIO GRANDE CITY, TX 78582
Phone 956-487-5312
FIRE CHIEF

Airport Operational Statistics

Aircraft based on the field: 1
Helicopters: 1
    
Aircraft operations: avg 35/week *
99% local general aviation
1% transient general aviation
* for 12-month period ending 02 February 2017

Additional Remarks

ARPT GATE CLSD AND LOCKED CALL 956-487-5312 FOR ACCESS. NO PUBLIC PHONE WITHIN ARPT PROPERTY.

Instrument Procedures

There are no published instrument procedures at 67R.

Some nearby airports with instrument procedures:

KMFE - Mc Allen Miller International Airport (36 nm SE)
KEBG - South Texas International Airport at Edinburg (39 nm E)
T65 - Mid Valley Airport (49 nm E)
KHBV - Jim Hogg County Airport (56 nm N)
KBKS - Brooks County Airport (61 nm NE)
 
Loc | Ops | Rwys | IFR | FBO | Links
Com | Nav | Svcs | Stats | Notes

AirNav Hotels Sweepstakes
 
Area around 67R (Rio Grande City Municipal Airport)
 
Road maps at: MapQuest Bing Google
 
Aerial photo
WARNING: Photo may not be current or correct
Aerial photo of 67R (Rio Grande City Municipal Airport)
Photo taken 22-Feb-2008
from about 2000ft looking almost due south

Do you have a better or more recent aerial photo of Rio Grande City Municipal Airport that you would like to share? If so, please send us your photo.

 
Sectional chart

 
Airport distance calculator
Flying to Rio Grande City Municipal Airport? Find the distance to fly.

From to 67R

Sunrise and sunset
Times for 22-Apr-2018
 Local
(UTC-5)
 Zulu
(UTC)
Morning civil twilight06:4211:42
Sunrise07:0612:06
Sunset20:0201:02
Evening civil twilight20:2601:26

Current date and time
Zulu (UTC)  23-Apr-2018 02:43:33
Local (UTC-5)  22-Apr-2018 21:43:33
 
METAR
KMFE 
35nm SE 
230153Z 08010KT 10SM CLR 25/15 A2998 RMK AO2 SLP150 T02500150
KEBG 
39nm E 
230215Z AUTO 07005KT 5SM HZ CLR 22/15 A3000 RMK AO2 T02240145
KAPY 
39nm NW 
230215Z AUTO 00000KT 10SM CLR 25/05 A2998 RMK AO2 T02540055
MMRX 
42nm SE 
230147Z 07006KT 7SM FEW080 SCT250 24/15 A2998 RMK 8/031 HZY
KT65 
49nm E 
230215Z AUTO 09004KT 10SM BKN110 22/14 A2999 RMK AO2 T02170136
TAF
KMFE 
35nm SE 
221740Z 2218/2318 05012G20KT P6SM FEW020 FM230200 04006KT P6SM SCT150 FM230900 VRB03KT 5SM BR OVC015 FM231400 07009KT P6SM SCT030
MMRX 
42nm SE 
2218/2318 36018KT P6SM OVC015 FM222200 36015KT P6SM SCT015 FM230200 08008KT P6SM SCT020 FM231600 12010KT P6SM SCT020 SCT080
NOTAMs
Click for the latest NOTAMs
NOTAMs are issued by the DoD/FAA and will open in a separate window not controlled by AirNav.

 

 
 

Would you like to see your business listed on this page?

 If your business provides an interesting product or service to pilots, flight crews, aircraft, or users of the Rio Grande City Municipal Airport, you should consider listing it here.  To start the listing process, click on the button below
 
Add a business
 

Other Pages about Rio Grande City Municipal Airport

Update a link
 
Copyright © AirNav, LLC. All rights reserved. Privacy Policy  Contact